#datint,netname,site,siteID,timestamp,IntT,BattV,AirT2,AirT,AirT_Avg,AirT_Max,AirT_Min,RH_Avg,RH_Max,RH_Min,EA_Avg,Td_Avg,Td_Max,Td_Min,WindS_Smp,WindS_Avg,WindD_Avg,WindD_SD,WindS_Max,ETo,ETr,SoilT4,SoilT8,SoilVWC8,SolarW_Avg,wetstate_Avg,wetT_Avg,Precip_accum,Precip_WPG,Precip_TB
15min,AgWx,beryljct,423,12APR2018:00:00:00,65.7,13.06,65.6,65.4,65.6,65.9,65.3,19,20,19,0.421,22.8,23.1,22.5,14.38,19.7,186,9.2,27.6,0.00141,0.00165,57.0,55.2,22,0,0,64.7,13.26,0.00,0.00
15min,AgWx,beryljct,423,12APR2018:00:15:00,65.6,13.06,65.0,65.1,65.0,65.4,64.6,20,20,19,0.402,22.5,22.9,21.9,23.74,19.1,185,8.1,27.1,0.00136,0.00160,56.9,55.2,22,0,0,63.9,13.26,0.00,0.00
15min,AgWx,beryljct,423,12APR2018:00:30:00,65.5,13.06,65.3,65.0,65.2,65.4,65.0,19,19,18,0.386,21.4,22.2,20.9,23.74,23.3,190,9.1,33.2,0.00150,0.00172,56.8,55.2,22,0,0,64.3,13.26,0.00,0.00
15min,AgWx,beryljct,423,12APR2018:00:45:00,65.4,13.06,65.0,64.9,64.9,65.3,64.7,18,19,18,0.389,21.0,21.3,20.8,25.98,23.7,191,9.2,33.8,0.00150,0.00172,56.7,55.2,22,0,0,63.9,13.26,0.00,0.00
15min,AgWx,beryljct,423,12APR2018:01:00:00,65.3,13.05,65.1,64.9,65.0,65.2,64.7,18,19,18,0.385,21.0,21.3,20.8,17.63,24.3,189,10,31.7,0.00152,0.00174,56.6,55.2,22,0,0,64.0,13.26,0.00,0.00
15min,AgWx,beryljct,423,12APR2018:01:15:00,65.4,13.04,65.4,65.3,65.2,65.4,64.7,17,19,16,0.344,19.7,21.1,18.2,32.99,25.4,189,9.1,35.3,0.00157,0.00179,56.5,55.2,22,0,0,64.4,13.26,0.00,0.00
15min,AgWx,beryljct,423,12APR2018:01:30:00,65.6,13.05,65.7,65.3,65.5,65.7,65.3,15,16,15,0.332,17.3,18.2,16.6,24.95,27.4,196,9.6,38.0,0.00167,0.00189,56.4,55.2,22,0,0,64.8,13.26,0.00,0.00
15min,AgWx,beryljct,423,12APR2018:01:45:00,65.7,13.03,65.3,65.1,65.2,65.4,65.0,15,16,15,0.320,16.6,17.4,15.9,26.59,26.9,194,9.5,37.1,0.00165,0.00186,56.4,55.1,22,0,0,64.5,13.27,0.01,0.00
15min,AgWx,beryljct,423,12APR2018:02:00:00,65.5,13.03,64.7,64.3,64.6,65.1,64.3,16,16,15,0.324,16.8,17.3,16.3,23.57,24.1,190,8.5,34.6,0.00156,0.00178,56.3,55.1,22,0,0,64.0,13.26,0.00,0.00
15min,AgWx,beryljct,423,12APR2018:02:15:00,65.3,13.03,64.6,64.7,64.5,64.8,64.2,15,16,15,0.312,16.3,16.8,15.7,24.05,23.3,195,8.0,33.4,0.00153,0.00176,56.2,55.1,22,0,0,63.9,13.26,0.00,0.00
15min,AgWx,beryljct,423,12APR2018:02:30:00,65.2,13.02,64.7,64.5,64.7,64.9,64.4,15,15,15,0.311,15.9,16.5,15.5,21.9,26.5,201,9.3,34.8,0.00162,0.00183,56.2,55.1,22,0,0,63.8,13.26,0.00,0.00
15min,AgWx,beryljct,423,12APR2018:02:45:00,64.9,13.03,63.9,63.3,63.9,64.5,63.3,15,16,15,0.311,16.0,16.7,15.4,26.17,24.5,205,9.9,35.5,0.00153,0.00175,56.1,55.1,22,0,0,62.8,13.26,0.00,0.00
15min,AgWx,beryljct,423,12APR2018:03:00:00,64.4,13.01,63.1,62.7,63.0,63.3,62.7,16,16,15,0.310,15.7,16.0,15.4,31.28,29.1,201,7.8,43.4,0.00158,0.00176,56.0,55.0,22,0,0,62.0,13.26,0.00,0.00
15min,AgWx,beryljct,423,12APR2018:03:15:00,63.9,13.01,62.6,62.5,62.5,62.7,62.3,16,17,16,0.328,16.3,17.1,15.7,37.36,31.2,202,9.4,42.4,0.00157,0.00175,55.9,55.0,22,0,0,61.7,13.27,0.01,0.00
15min,AgWx,beryljct,423,12APR2018:03:30:00,63.5,13.01,62.2,61.6,62.1,62.5,61.6,18,19,17,0.349,17.8,18.6,17.1,24.57,31.9,207,7.8,42.2,0.00154,0.00170,55.9,55.0,22,0,0,61.2,13.27,0.00,0.00
15min,AgWx,beryljct,423,12APR2018:03:45:00,62.9,13.02,61.4,60.9,61.3,61.7,60.9,19,19,19,0.350,18.5,18.8,18.3,29.42,32.2,211,9.3,42.3,0.00148,0.00164,55.8,55.0,22,0,0,60.4,13.27,0.00,0.00
15min,AgWx,beryljct,423,12APR2018:04:00:00,62.3,13.01,60.5,60.0,60.4,60.9,60.0,20,20,19,0.350,18.7,19.0,18.5,26.48,27.4,211,9.6,38.8,0.00137,0.00153,55.7,54.9,22,0,0,59.3,13.27,0.00,0.00
15min,AgWx,beryljct,423,12APR2018:04:15:00,61.4,13.01,59.5,58.9,59.5,60.0,58.9,21,22,20,0.370,19.3,20.0,18.5,22.43,25.8,207,7.9,34.2,0.00129,0.00145,55.6,54.9,22,0,0,58.1,13.26,0.00,0.00
15min,AgWx,beryljct,423,12APR2018:04:30:00,60.5,13,58.8,58.3,58.6,58.9,58.3,22,23,22,0.385,20.3,20.9,19.9,25.91,26.5,204,7.5,38.3,0.00124,0.00139,55.6,54.9,22,0,0,57.3,13.26,0.00,0.00
15min,AgWx,beryljct,423,12APR2018:04:45:00,59.7,12.96,58.1,57.5,57.9,58.4,57.5,24,24,23,0.395,21.1,21.5,20.7,28.59,25.5,200,8.5,33.7,0.00118,0.00133,55.5,54.9,22,0,0,56.6,13.26,0.00,0.00
15min,AgWx,beryljct,423,12APR2018:05:00:00,59.0,12.98,57.2,56.5,57.1,57.6,56.5,25,26,24,0.408,21.9,22.2,21.4,16.46,22.9,197,8.3,34.3,0.00109,0.00124,55.4,54.9,22,0,0,55.7,13.26,0.00,0.00
15min,AgWx,beryljct,423,12APR2018:05:15:00,58.1,12.98,56.2,55.9,56.1,56.5,55.9,27,29,26,0.437,22.9,23.9,22.2,22.4,23.2,195,8.3,31.7,0.00103,0.00116,55.3,54.8,22,0,0,54.8,13.27,0.00,0.00
15min,AgWx,beryljct,423,12APR2018:05:30:00,57.4,12.98,55.4,54.9,55.3,55.9,54.8,30,32,29,0.461,24.7,25.3,23.9,23.19,23.6,195,7.6,33.3,0.00097,0.00109,55.2,54.8,22,0,0,54.2,13.27,0.00,0.00
15min,AgWx,beryljct,423,12APR2018:05:45:00,56.6,12.97,54.8,54.6,54.7,54.9,54.5,31,32,31,0.450,24.9,25.3,24.6,26.26,23.0,197,7.8,30.3,0.00093,0.00105,55.0,54.8,22,0,0,53.4,13.27,0.00,0.00
15min,AgWx,beryljct,423,12APR2018:06:00:00,56.0,12.96,54.3,53.8,54.2,54.6,53.8,32,33,31,0.468,25.0,25.6,24.5,22.65,22.1,201,9.6,28.5,0.00089,0.00101,54.9,54.8,22,0,0,52.8,13.27,0.00,0.00
15min,AgWx,beryljct,423,12APR2018:06:15:00,55.4,12.96,53.6,53.2,53.5,53.8,53.1,34,35,33,0.480,25.9,26.3,25.4,18.46,20.4,205,8.0,27.1,0.00082,0.00094,54.8,54.7,22,0,0,52.0,13.27,0.00,0.00
15min,AgWx,beryljct,423,12APR2018:06:30:00,54.7,12.94,52.8,52.6,52.7,53.2,52.4,36,37,35,0.495,26.5,26.9,26.2,18.04,18.1,206,7.1,24.9,0.00189,0.00329,54.7,54.7,22,0,0,51.2,13.27,0.00,0.00
15min,AgWx,beryljct,423,12APR2018:06:45:00,54.1,12.95,52.4,51.9,52.2,52.6,51.8,37,38,37,0.493,26.9,27.0,26.7,23.5,19.7,208,8.3,25.9,0.00192,0.00334,54.5,54.7,22,0,0,50.9,13.27,0.00,0.00
15min,AgWx,beryljct,423,12APR2018:07:00:00,53.6,12.94,51.7,51.3,51.6,52.0,51.2,38,39,37,0.495,26.8,27.0,26.7,20.96,17.6,210,6.7,26.6,0.00176,0.00306,54.4,54.6,22,1,0,50.2,13.27,0.00,0.00
15min,AgWx,beryljct,423,12APR2018:07:15:00,53.0,12.95,51.3,50.9,51.1,51.3,50.9,38,39,38,0.482,26.5,26.9,26.2,14.42,17.6,215,10,23.5,0.00176,0.00305,54.2,54.6,22,8,0,50.1,13.27,0.00,0.00
15min,AgWx,beryljct,423,12APR2018:07:30:00,52.7,12.97,51.2,51.3,50.9,51.3,50.7,37,38,36,0.469,25.8,26.2,25.3,15.48,17.7,217,7.7,24.3,0.00190,0.00321,54.1,54.5,22,43,0,51.9,13.27,0.00,0.00
15min,AgWx,beryljct,423,12APR2018:07:45:00,52.7,12.97,51.3,51.1,51.1,51.3,50.9,37,37,36,0.462,25.5,25.9,25.2,18.39,17.8,219,9.6,23.7,0.00205,0.00338,54.0,54.5,22,82,0,54.1,13.27,0.00,0.00
15min,AgWx,beryljct,423,12APR2018:08:00:00,53.0,12.95,51.4,51.3,51.1,51.3,51.0,36,36,35,0.447,24.8,25.3,24.3,23.26,18.6,217,7.5,23.3,0.00223,0.00363,53.8,54.5,22,130,0,56.3,13.27,0.00,0.00
15min,AgWx,beryljct,423,12APR2018:08:15:00,53.4,12.99,51.8,51.7,51.5,51.8,51.3,34,35,34,0.449,24.3,24.8,23.8,16.07,18.2,215,6.8,22.9,0.00241,0.00384,53.7,54.4,22,179,0,58.5,13.27,0.00,0.00
15min,AgWx,beryljct,423,12APR2018:08:30:00,53.9,13.06,52.3,52.2,52.0,52.3,51.7,33,34,33,0.438,24.2,24.8,23.8,20.34,17.9,219,9.8,23.3,0.00259,0.00405,53.6,54.4,22,231,0,60.2,13.27,0.00,0.00
15min,AgWx,beryljct,423,12APR2018:08:45:00,54.4,13.17,52.6,52.7,52.4,52.8,52.1,33,34,32,0.447,24.2,25.4,23.6,14.38,17.3,223,8.7,24.3,0.00276,0.00422,53.4,54.3,22,282,0,60.9,13.27,0.00,0.00
15min,AgWx,beryljct,423,12APR2018:09:00:00,55.2,13.38,53.2,53.2,53.0,53.5,52.6,33,34,32,0.454,24.9,26.0,24.1,17.93,14.9,234,11,20.9,0.00284,0.00421,53.4,54.3,22,330,0,62.8,13.27,0.00,0.00
15min,AgWx,beryljct,423,12APR2018:09:15:00,55.4,13.32,52.8,51.8,52.8,53.8,51.7,33,35,32,0.432,24.8,26.4,23.5,13.81,14.0,238,7.6,20.7,0.00239,0.00368,53.3,54.2,21,184,0,58.5,13.27,0.00,0.00
15min,AgWx,beryljct,423,12APR2018:09:30:00,54.4,13.29,51.6,51.3,51.4,51.9,51.3,33,35,32,0.445,23.6,24.5,22.8,11.84,14.6,245,9.1,21.6,0.00202,0.00328,53.2,54.1,22,89,0,52.5,13.27,0.00,0.00
15min,AgWx,beryljct,423,12APR2018:09:45:00,54.8,13.58,53.4,53.8,53.1,54.9,51.1,34,36,31,0.474,25.2,27.0,23.7,9.29,11.8,238,9.0,19.4,0.00304,0.00425,53.2,54.1,21,416,0,63.6,13.27,0.00,0.00
15min,AgWx,beryljct,423,12APR2018:10:00:00,56.4,14.39,54.6,55.3,54.4,55.6,53.2,32,34,29,0.457,24.8,26.5,23.1,11.95,12.8,233,18,18.5,0.00392,0.00530,53.1,54.0,21,627,0,70.2,13.27,0.00,0.00
15min,AgWx,beryljct,423,12APR2018:10:15:00,57.7,13.77,54.3,52.5,54.3,56.5,52.4,29,32,27,0.385,22.8,25.9,20.7,13.75,16.4,258,14,22.6,0.00358,0.00519,53.1,54.0,22,436,0,64.6,13.27,0.00,0.00
15min,AgWx,beryljct,423,12APR2018:10:30:00,57.0,13.69,52.7,52.7,52.4,52.7,52.0,29,30,27,0.380,20.7,22.1,19.6,20.76,16.5,271,10,23.4,0.00295,0.00447,53.1,53.9,22,271,0,57.5,13.27,0.00,0.00
15min,AgWx,beryljct,423,12APR2018:10:45:00,56.1,13.57,51.9,51.2,51.7,52.6,51.2,28,29,27,0.361,19.3,20.8,18.5,15.52,17.7,273,7.9,23.2,0.00285,0.00442,53.2,53.9,21,216,0,55.9,13.27,0.00,0.00
15min,AgWx,beryljct,423,12APR2018:11:00:00,55.0,14.38,50.8,51.3,50.5,51.3,50.1,28,29,27,0.357,18.5,19.6,17.8,12.76,14.4,283,9.9,20.0,0.00254,0.00389,53.2,53.8,21,207,0,54.2,13.27,0.00,0.00
15min,AgWx,beryljct,423,12APR2018:11:15:00,55.7,14.13,54.2,52.7,53.9,56.7,51.4,26,28,24,0.347,19.6,23.7,17.5,11.27,14.9,280,14,22.1,0.00456,0.00619,53.3,53.8,21,726,0,67.3,13.26,0.00,0.00
15min,AgWx,beryljct,423,12APR2018:11:30:00,56.6,14.4,53.9,54.7,53.6,55.7,51.7,25,26,24,0.348,18.7,21.1,16.9,18.11,14.9,285,14,24.1,0.00449,0.00611,53.3,53.8,21,715,0,65.9,13.26,0.00,0.00
15min,AgWx,beryljct,423,12APR2018:11:45:00,57.8,14.34,54.7,54.2,54.6,55.6,53.5,24,25,22,0.327,18.1,20.4,15.9,11.88,13.7,281,15,20.0,0.00493,0.00657,53.4,53.7,21,807,0,69.9,13.26,0.00,0.00
15min,AgWx,beryljct,423,12APR2018:12:00:00,58.6,14.3,55.3,55.1,55.2,56.8,53.5,23,25,21,0.313,18.0,20.6,15.6,12.08,12.9,269,13,19.7,0.00526,0.00689,53.5,53.7,21,885,0,71.8,13.26,0.00,0.00
15min,AgWx,beryljct,423,12APR2018:12:15:00,59.4,13.98,55.9,55.9,55.8,56.6,54.9,20,23,17,0.276,15.6,19.1,10.7,16.77,15.0,264,13,20.9,0.00542,0.00727,53.6,53.7,21,878,0,71.0,13.26,0.00,0.00
15min,AgWx,beryljct,423,12APR2018:12:30:00,59.7,13.98,55.3,55.5,55.2,56.7,54.3,19,21,16,0.303,13.5,16.3,9.5,15.72,13.6,266,15,21.4,0.00564,0.00741,53.8,53.7,22,956,0,71.8,13.26,0.00,0.00
15min,AgWx,beryljct,423,12APR2018:12:45:00,60.0,13.87,56.0,55.5,55.9,57.0,54.4,18,20,16,0.266,12.8,15.8,10.4,16.24,17.0,277,13,23.9,0.00581,0.00785,54.1,53.7,22,955,0,70.0,13.26,0.00,0.00
15min,AgWx,beryljct,423,12APR2018:13:00:00,60.1,13.87,55.7,55.3,55.6,56.8,54.3,17,20,16,0.264,12.1,15.5,9.5,11.49,15.2,275,15,22.5,0.00577,0.00770,54.3,53.7,22,962,0,70.2,13.26,0.00,0.00
15min,AgWx,beryljct,423,12APR2018:13:15:00,60.2,13.87,55.9,56.6,55.8,56.8,54.3,17,19,15,0.266,11.5,14.6,7.8,16.88,15.1,283,16,21.7,0.00586,0.00779,54.6,53.7,22,976,0,70.5,13.26,0.00,0.00
15min,AgWx,beryljct,423,12APR2018:13:30:00,60.4,13.87,56.6,56.0,56.5,57.6,55.5,16,18,14,0.234,10.3,14.4,7.0,13.99,13.9,275,18,20.7,0.00605,0.00797,54.9,53.7,22,1004,0,71.8,13.26,0.00,0.00
15min,AgWx,beryljct,423,12APR2018:13:45:00,60.5,13.89,56.1,56.6,55.9,57.4,54.1,18,21,14,0.302,12.4,17.4,8.1,14.91,13.3,268,17,22.7,0.00517,0.00695,55.2,53.7,22,794,0,69.8,13.26,0.00,0.00
15min,AgWx,beryljct,423,12APR2018:14:00:00,60.3,13.9,55.8,56.7,55.6,58.2,53.3,20,23,18,0.290,15.4,18.5,12.3,13.53,14.1,287,19,19.4,0.00466,0.00640,55.5,53.7,22,675,0,66.2,13.25,0.00,0.00
15min,AgWx,beryljct,423,12APR2018:14:15:00,59.9,13.89,55.0,55.8,54.9,57.2,52.9,20,22,19,0.299,15.0,18.4,13.1,14.07,16.2,281,15,24.3,0.00464,0.00649,55.9,53.8,22,682,0,64.0,13.25,0.00,0.00
15min,AgWx,beryljct,423,12APR2018:14:30:00,60.2,13.83,56.3,56.5,56.2,58.0,55.0,18,20,16,0.266,13.8,17.5,11.4,18.66,17.7,273,18,26.9,0.00602,0.00810,56.1,53.8,22,1004,0,68.6,13.26,0.00,0.00
15min,AgWx,beryljct,423,12APR2018:14:45:00,60.5,13.85,55.8,54.5,55.9,57.0,54.3,17,20,16,0.227,12.1,15.1,8.8,8.83,17.3,278,13,23.5,0.00585,0.00794,56.4,53.9,22,964,0,67.2,13.25,0.00,0.00
15min,AgWx,beryljct,423,12APR2018:15:00:00,60.8,13.88,55.6,55.2,55.6,56.6,54.3,17,19,15,0.224,11.1,14.3,7.8,14.12,15.8,284,17,22.8,0.00577,0.00774,56.6,54.0,22,958,0,67.5,13.26,0.00,0.00
15min,AgWx,beryljct,423,12APR2018:15:15:00,61.1,13.93,55.8,55.5,55.7,57.2,54.6,16,18,15,0.232,10.1,14.3,7.4,15.78,15.5,290,19,21.6,0.00574,0.00772,56.8,54.1,22,943,0,67.8,13.25,0.00,0.00
15min,AgWx,beryljct,423,12APR2018:15:30:00,60.5,13.85,54.6,55.2,54.4,57.6,52.4,16,17,15,0.237,8.5,13.3,6.2,12.71,15.5,283,18,21.6,0.00439,0.00626,57.1,54.2,22,614,0,61.6,13.25,0.00,0.00
15min,AgWx,beryljct,423,12APR2018:15:45:00,59.9,13.85,54.5,55.2,54.4,55.7,52.8,14,16,12,0.198,6.4,10.6,3.2,22.91,16.4,286,16,25.0,0.00485,0.00682,57.3,54.3,22,741,0,62.6,13.25,0.00,0.00
15min,AgWx,beryljct,423,12APR2018:16:00:00,59.8,13.83,54.4,54.9,54.3,55.1,52.8,14,16,13,0.197,5.6,9.0,2.6,19.88,18.4,285,12,23.3,0.00513,0.00724,57.5,54.4,22,792,0,62.2,13.25,0.00,0.00
15min,AgWx,beryljct,423,12APR2018:16:15:00,59.5,13.86,53.7,53.4,53.7,54.9,52.5,13,14,12,0.172,4.1,6.0,2.6,16.53,19.3,278,13,26.4,0.00505,0.00719,57.5,54.4,22,773,0,60.5,13.26,0.00,0.00
15min,AgWx,beryljct,423,12APR2018:16:30:00,58.9,13.85,53.3,53.2,53.3,53.9,52.1,13,15,12,0.175,3.9,6.3,1.9,21.2,21.1,282,12,28.2,0.00488,0.00709,57.5,54.5,22,726,0,59.1,13.25,0.00,0.00
15min,AgWx,beryljct,423,12APR2018:16:45:00,58.4,13.88,52.5,52.3,52.5,53.6,51.7,14,16,13,0.189,5.2,7.6,2.4,23.22,20.7,281,11,28.5,0.00463,0.00674,57.4,54.6,21,691,0,57.9,13.25,0.00,0.00
15min,AgWx,beryljct,423,12APR2018:17:00:00,57.7,13.95,51.7,51.6,51.7,52.3,51.0,14,15,13,0.176,4.2,5.7,2.7,19.97,20.5,277,9.9,27.0,0.00441,0.00647,57.4,54.7,21,649,0,56.4,13.25,0.00,0.00
15min,AgWx,beryljct,423,12APR2018:17:15:00,57.1,13.85,51.2,50.4,51.1,52.2,50.2,13,15,12,0.151,1.8,5.3,-0.7,17.06,19.0,277,9.0,27.6,0.00416,0.00613,57.4,54.8,21,600,0,55.4,13.25,0.00,0.00
15min,AgWx,beryljct,423,12APR2018:17:30:00,56.5,13.91,50.7,50.5,50.5,51.3,49.8,13,14,12,0.163,1.1,4.0,-0.8,13.22,17.3,288,14,22.9,0.00388,0.00572,57.5,54.8,21,557,0,54.3,13.25,0.00,0.00
15min,AgWx,beryljct,423,12APR2018:17:45:00,56.3,13.88,51.1,49.9,50.9,51.9,49.9,14,15,13,0.173,3.2,5.7,0.6,19.75,16.9,304,19,23.4,0.00377,0.00558,57.5,54.9,21,531,0,54.8,13.25,0.00,0.00
15min,AgWx,beryljct,423,12APR2018:18:00:00,55.9,13.91,50.1,49.9,49.8,50.3,49.2,14,15,14,0.168,3.3,4.7,1.6,19.82,18.0,330,11,24.0,0.00351,0.00531,57.5,55.0,21,470,0,53.0,13.25,0.00,0.00
15min,AgWx,beryljct,423,12APR2018:18:15:00,55.3,13.94,49.5,49.2,49.2,49.9,48.4,14,16,14,0.172,2.8,5.4,1.0,19.86,18.2,332,9.1,25.4,0.00333,0.00511,57.5,55.0,21,426,0,51.9,13.25,0.00,0.00
15min,AgWx,beryljct,423,12APR2018:18:30:00,54.4,13.96,48.6,48.4,48.4,49.5,47.5,14,15,13,0.170,1.6,4.5,-0.0,17.89,18.8,337,11,28.3,0.00301,0.00478,57.5,55.1,21,338,0,50.1,13.25,0.00,0.00
15min,AgWx,beryljct,423,12APR2018:18:45:00,53.6,13.99,48.0,46.9,47.8,48.7,46.9,15,16,14,0.168,2.4,3.8,1.0,20.01,21.6,334,11,27.7,0.00299,0.00483,57.5,55.1,21,308,0,49.4,13.25,0.00,0.00
15min,AgWx,beryljct,423,12APR2018:19:00:00,52.3,13.92,46.6,45.9,46.4,46.9,45.9,16,16,15,0.163,2.0,2.7,1.1,19.84,20.5,330,9.0,24.9,0.00259,0.00429,57.4,55.2,21,229,0,47.1,13.26,0.00,0.00
15min,AgWx,beryljct,423,12APR2018:19:15:00,51.1,13.41,46.0,45.2,45.7,46.0,45.2,15,16,14,0.145,-0.0,1.7,-1.6,16.11,18.9,323,11,25.7,0.00096,0.00107,57.4,55.2,21,178,0,46.1,13.25,0.00,0.00
15min,AgWx,beryljct,423,12APR2018:19:30:00,49.9,13.28,44.8,44.0,44.6,45.2,43.9,15,16,14,0.145,-0.1,0.9,-1.5,27.12,20.3,335,11,27.1,0.00090,0.00100,57.3,55.3,22,131,0,44.8,13.26,0.00,0.00
15min,AgWx,beryljct,423,12APR2018:19:45:00,48.5,13.25,44.0,43.2,43.8,44.1,43.2,15,15,14,0.143,-1.1,-0.5,-1.7,23.35,21.8,340,7.2,27.0,0.00087,0.00096,57.1,55.3,22,81,0,43.4,13.26,0.00,0.00
15min,AgWx,beryljct,423,12APR2018:20:00:00,47.1,13.2,43.0,42.3,42.7,43.2,42.2,15,16,15,0.146,-1.2,-0.4,-1.6,20.04,21.4,340,12,27.6,0.00079,0.00088,56.9,55.3,22,20,0,42.1,13.26,0.00,0.00
15min,AgWx,beryljct,423,12APR2018:20:15:00,45.7,13.14,42.0,41.2,41.8,42.3,41.2,16,17,16,0.148,-0.6,-0.2,-0.9,24.05,21.4,340,6.9,28.5,0.00075,0.00083,56.7,55.3,22,5,0,41.1,13.26,0.00,0.00
15min,AgWx,beryljct,423,12APR2018:20:30:00,44.4,13.12,40.8,40.3,40.6,41.3,40.0,17,17,16,0.136,-1.1,-0.5,-2.3,20.52,17.7,337,6.9,22.4,0.00067,0.00076,56.5,55.3,22,1,0,39.8,13.26,0.00,0.00
15min,AgWx,beryljct,423,12APR2018:20:45:00,43.4,13.1,40.2,39.4,39.9,40.4,39.4,16,17,16,0.138,-2.3,-1.8,-2.7,17.21,17.4,331,7.2,23.3,0.00066,0.00074,56.2,55.4,22,0,0,39.2,13.26,0.00,0.00
15min,AgWx,beryljct,423,12APR2018:21:00:00,42.5,13.07,39.5,38.5,39.2,39.6,38.5,17,18,17,0.145,-1.4,-0.7,-2.0,13.48,15.9,334,5.6,21.3,0.00061,0.00070,55.9,55.4,22,0,0,38.6,13.26,0.00,0.00
15min,AgWx,beryljct,423,12APR2018:21:15:00,41.7,13.06,38.9,38.7,38.5,38.7,38.3,18,19,18,0.144,-1.1,-0.8,-1.4,16.33,14.9,334,7.8,19.5,0.00057,0.00066,55.7,55.3,22,0,0,37.9,13.26,0.00,0.00
15min,AgWx,beryljct,423,12APR2018:21:30:00,41.1,13.07,38.5,38.0,38.2,38.7,37.8,19,19,18,0.146,-0.8,-0.3,-1.1,16.55,14.4,338,7.7,19.2,0.00056,0.00064,55.4,55.3,22,0,0,37.7,13.26,0.00,0.00
15min,AgWx,beryljct,423,12APR2018:21:45:00,40.4,13.06,38.0,37.5,37.6,38.0,37.3,20,20,19,0.154,-0.3,0.3,-0.9,13.94,14.4,338,8.2,20.6,0.00054,0.00062,55.1,55.3,22,0,0,37.1,13.26,0.00,0.00
15min,AgWx,beryljct,423,12APR2018:22:00:00,39.9,13.04,37.3,36.5,37.0,37.5,36.4,21,21,20,0.154,0.3,0.5,0.0,11.38,13.2,344,10,16.3,0.00051,0.00059,54.8,55.3,22,0,0,36.5,13.26,0.00,0.00
15min,AgWx,beryljct,423,12APR2018:22:15:00,39.1,13.04,36.4,36.0,36.0,36.5,35.6,22,22,21,0.158,0.6,0.9,0.2,14.25,11.7,337,6.6,15.4,0.00045,0.00053,54.5,55.2,22,0,0,35.5,13.26,0.00,0.00
15min,AgWx,beryljct,423,12APR2018:22:30:00,38.5,13.02,36.3,35.9,35.9,36.1,35.6,23,23,22,0.161,1.2,1.7,0.7,14.82,12.4,335,6.8,15.8,0.00046,0.00053,54.2,55.2,22,0,0,35.6,13.26,0.00,0.00
15min,AgWx,beryljct,423,12APR2018:22:45:00,38.0,13.02,36.0,35.0,35.6,36.2,35.0,23,23,22,0.160,1.2,1.5,0.9,9.01,11.1,337,5.2,17.6,0.00043,0.00051,53.9,55.1,22,0,0,35.6,13.26,0.00,0.00
15min,AgWx,beryljct,423,12APR2018:23:00:00,37.4,13,34.5,33.2,34.3,35.0,33.2,24,24,23,0.154,0.9,1.4,0.3,5.941,7.2,360,16,11.7,0.00031,0.00038,53.6,55.1,22,0,0,35.5,13.26,0.00,0.00
15min,AgWx,beryljct,423,12APR2018:23:15:00,36.4,12.86,33.7,33.4,33.2,33.5,32.6,25,26,24,0.161,0.9,1.4,0.2,7.585,6.9,345,10,9.6,0.00028,0.00036,53.3,55.0,22,0,0,35.7,13.26,0.00,0.00
15min,AgWx,beryljct,423,12APR2018:23:30:00,35.7,12.99,33.4,32.7,33.0,33.5,32.7,26,26,25,0.165,1.5,1.9,1.1,5.853,7.1,346,8.0,9.0,0.00028,0.00035,53.0,54.9,22,0,0,35.5,13.26,0.00,0.00
15min,AgWx,beryljct,423,12APR2018:23:45:00,34.9,12.96,31.1,29.4,31.0,32.7,29.3,27,29,25,0.159,1.2,2.8,0.5,5.064,5.5,360,11,7.9,0.00020,0.00027,52.7,54.8,22,0,0,35.2,13.26,0.00,0.00
15min,AgWx,beryljct,423,13APR2018:00:00:00,33.9,12.82,30.8,29.6,30.2,31.9,29.5,28,30,27,0.165,1.1,1.8,0.5,5.349,5.5,352,7.4,9.5,0.00019,0.00026,52.4,54.8,22,0,0,35.6,13.26,0.00,0.00
15min,AgWx,beryljct,423,13APR2018:00:15:00,33.0,12.95,30.2,30.9,29.6,30.9,28.3,29,31,28,0.162,1.4,1.8,1.0,9.34,6.0,349,7.6,10.1,0.00020,0.00026,52.2,54.7,22,0,0,35.7,13.26,0.00,0.00
15min,AgWx,beryljct,423,13APR2018:00:30:00,32.8,12.95,32.0,31.2,31.4,31.8,31.0,28,29,27,0.172,2.0,2.7,1.3,6.752,8.5,341,7.9,11.1,0.00029,0.00036,51.9,54.6,22,0,0,36.0,13.26,0.00,0.00
15min,AgWx,bigpiney,439,12APR2018:00:00:00,41.4,12.81,37.2,36.8,37.3,38.6,36.5,54,57,50,0.413,22.2,22.6,21.5,3.42,3.0,244,32,4.7,0.00007,0.00012,32.8,31.9,19,0,0,0.0,.,0.00,0.00
15min,AgWx,bigpiney,439,12APR2018:00:15:00,41.4,12.81,37.6,37.3,37.7,38.2,36.8,53,56,51,0.417,22.1,22.7,21.5,3.529,3.7,293,15,4.3,0.00011,0.00016,32.7,31.9,19,0,0,0.0,.,0.00,0.00
15min,AgWx,bigpiney,439,12APR2018:00:30:00,41.4,12.8,38.9,38.0,37.5,38.1,37.2,56,57,54,0.427,23.2,23.5,22.8,8.92,5.4,287,22,8.9,0.00015,0.00021,32.7,32.0,19,0,0,0.0,.,0.00,0.00
15min,AgWx,bigpiney,439,12APR2018:00:45:00,41.7,12.79,42.2,42.3,42.1,44.4,38.0,44,55,37,0.356,21.7,23.7,18.3,6.072,7.3,291,28,12.6,0.00031,0.00040,32.6,32.0,19,0,0,0.0,.,0.00,0.00
15min,AgWx,bigpiney,439,12APR2018:01:00:00,42.2,12.78,40.1,39.7,40.4,42.2,39.5,46,53,39,0.442,21.1,24.1,18.4,5.415,5.1,294,15,6.9,0.00021,0.00029,32.6,31.9,19,0,0,0.0,.,0.00,0.00
15min,AgWx,bigpiney,439,12APR2018:01:15:00,42.4,12.78,39.3,39.3,39.9,40.3,39.3,56,57,54,0.468,25.5,25.9,24.2,5.239,5.8,300,9.7,9.2,0.00018,0.00024,32.5,31.9,19,0,0,0.0,.,0.00,0.00
15min,AgWx,bigpiney,439,12APR2018:01:30:00,42.4,12.77,38.6,38.5,38.9,39.3,38.4,60,64,58,0.502,26.2,27.2,25.6,6.708,6.3,307,8.7,8.3,0.00017,0.00022,32.5,31.9,19,0,0,0.0,.,0.00,0.00
15min,AgWx,bigpiney,439,12APR2018:01:45:00,42.1,12.76,37.1,37.0,37.7,38.5,36.9,65,67,64,0.499,27.1,27.3,26.9,3.201,4.7,312,9.4,7.4,0.00009,0.00013,32.4,31.9,19,0,0,0.0,.,0.00,0.00
15min,AgWx,bigpiney,439,12APR2018:02:00:00,41.6,12.76,36.7,36.2,36.6,37.0,36.1,70,73,67,0.523,27.8,28.3,27.0,3.814,4.5,321,11,6.6,0.00006,0.00009,32.4,31.9,19,0,0,0.0,.,0.00,0.00
15min,AgWx,bigpiney,439,12APR2018:02:15:00,41.1,12.75,35.7,35.5,35.7,36.3,35.4,73,74,72,0.520,28.0,28.3,27.8,4.187,5.4,330,8.6,6.8,0.00006,0.00009,32.3,31.9,19,0,0,0.0,.,0.00,0.00
15min,AgWx,bigpiney,439,12APR2018:02:30:00,40.5,12.73,35.0,35.1,35.3,35.5,35.1,75,76,74,0.521,28.3,28.5,28.0,2.653,3.2,321,19,5.4,0.00001,0.00002,32.3,32.0,19,0,0,0.0,.,0.00,0.00
15min,AgWx,bigpiney,439,12APR2018:02:45:00,39.9,12.72,35.9,35.6,35.1,35.6,34.9,74,75,73,0.514,27.8,28.0,27.6,2.543,1.9,267,9.6,2.7,-0.00004,-0.00004,32.3,31.9,19,0,0,0.0,.,0.00,0.00
15min,AgWx,bigpiney,439,12APR2018:03:00:00,39.4,12.71,33.1,32.4,34.9,35.8,32.4,72,74,70,0.463,26.9,27.8,25.1,5.415,3.6,257,9.8,5.4,0.00003,0.00005,32.3,31.9,19,0,0,0.0,.,0.00,0.00
15min,AgWx,bigpiney,439,12APR2018:03:15:00,38.9,12.72,34.6,34.3,34.2,35.1,32.5,72,75,70,0.474,26.0,26.5,25.3,1.929,2.9,254,22,6.0,0.00001,0.00002,32.2,31.9,19,0,0,0.0,.,0.00,0.00
15min,AgWx,bigpiney,439,12APR2018:03:30:00,38.4,12.7,33.4,31.6,33.4,34.3,31.4,73,76,71,0.457,25.5,26.1,23.8,0.175,1.8,196,32,2.9,-0.00004,-0.00004,32.2,31.9,19,0,0,0.0,.,0.00,0.00
15min,AgWx,bigpiney,439,12APR2018:03:45:00,37.8,12.7,33.8,33.3,32.9,33.5,31.7,75,76,74,0.487,25.9,26.6,25.1,1.776,1.3,44,18,2.9,-0.00006,-0.00008,32.2,31.9,19,0,0,0.0,.,0.00,0.00
15min,AgWx,bigpiney,439,12APR2018:04:00:00,37.0,12.68,33.1,32.8,32.9,33.3,32.6,77,79,76,0.497,26.6,27.0,26.4,1.03,1.5,12,6.2,2.0,-0.00006,-0.00007,32.1,31.9,19,0,0,0.0,.,0.00,0.00
15min,AgWx,bigpiney,439,12APR2018:04:15:00,36.2,12.68,31.1,31.4,32.1,32.8,31.4,80,80,78,0.478,26.5,26.9,25.9,2.455,2.3,312,31,3.5,-0.00003,-0.00004,32.1,32.0,19,0,0,0.0,.,0.00,0.00
15min,AgWx,bigpiney,439,12APR2018:04:30:00,35.4,12.66,31.0,30.7,31.2,31.8,30.6,81,82,80,0.474,26.1,26.7,25.3,3.288,3.2,265,15,5.1,-0.00001,-0.00001,32.1,31.9,19,0,0,0.0,.,0.00,0.00
15min,AgWx,bigpiney,439,12APR2018:04:45:00,34.5,12.65,31.2,30.2,29.6,30.8,27.5,82,85,77,0.473,24.7,25.9,21.7,2.806,3.2,243,11,5.9,-0.00002,-0.00001,32.0,32.0,19,0,0,0.0,.,0.00,0.00
15min,AgWx,bigpiney,439,12APR2018:05:00:00,33.6,12.64,27.1,27.8,29.3,31.3,27.8,82,85,77,0.419,24.6,26.4,22.7,6.314,4.3,252,13,7.5,0.00000,0.00001,32.0,31.9,19,0,0,0.0,.,0.00,0.00
15min,AgWx,bigpiney,439,12APR2018:05:15:00,33.1,12.64,28.8,28.8,28.8,29.6,27.4,83,86,82,0.441,24.3,25.3,22.8,4.319,4.7,242,7.7,6.6,0.00000,0.00001,32.0,31.9,19,0,0,0.0,.,0.00,0.00
15min,AgWx,bigpiney,439,12APR2018:05:30:00,32.8,12.62,30.1,29.7,28.8,29.8,28.1,83,84,82,0.459,24.3,25.2,23.3,5.305,4.7,222,10,6.2,0.00000,0.00001,32.0,31.9,19,0,0,0.0,.,0.00,0.00
15min,AgWx,bigpiney,439,12APR2018:05:45:00,33.1,12.6,30.5,30.1,29.4,30.2,28.8,84,86,83,0.471,25.2,25.8,24.5,7.475,5.9,201,13,9.3,0.00001,0.00002,32.0,31.9,19,0,0,0.0,.,0.00,0.00
15min,AgWx,bigpiney,439,12APR2018:06:00:00,33.5,12.6,32.2,31.9,31.5,34.7,30.1,80,84,72,0.470,26.0,27.3,25.1,2.455,5.0,195,61,15.4,0.00002,0.00004,31.9,31.9,19,0,0,0.0,.,0.00,0.00
15min,AgWx,bigpiney,439,12APR2018:06:15:00,33.9,12.6,29.0,29.1,31.1,32.6,29.1,80,83,76,0.453,25.5,26.4,24.7,4.691,3.8,77,50,7.3,0.00000,0.00001,31.9,31.9,19,0,0,0.0,.,0.00,0.00
15min,AgWx,bigpiney,439,12APR2018:06:30:00,34.2,12.58,29.9,29.4,29.1,29.4,28.9,85,86,83,0.465,25.1,25.6,24.6,1.14,1.2,77,37,4.7,-0.00007,-0.00010,31.9,32.0,19,0,0,0.0,.,0.00,0.00
15min,AgWx,bigpiney,439,12APR2018:06:45:00,34.3,12.57,30.6,29.9,29.6,30.0,29.2,85,86,83,0.472,25.5,25.8,25.2,5.48,3.6,254,37,6.1,-0.00002,-0.00001,31.9,32.0,19,1,0,0.0,.,0.00,0.00